21:26
Airports
History
Links
Donate
Help keep this website running!
PayPal
Bitcoin
This page is community maintained. The information is intended for PC simulator navigation or reference.
Always use approved charts for navigation.
OTBD
DOHA INTL
DOHA INTL (OTBD)
Doha, Doha, Qatar
(C)
Lat/Lng:25° 15' 39.8" N / 51° 33' 54" E
25.261056 / 51.564999
Elevation:35'ft / 11mMSL
ID / ICAO:OTBD
Runways:1
Longest:16-34
Asphalt 4,587m / 15,048ft
Controlled:Yes
METAR21:00 GMT 2017-10-21
Altimeter: 29.80
Visibility: 6.2 statute miles
Wind: 4 knots (from 300°)
Temp: 29°c / 84°f
Humidity: 51.5%

METAR: OTBD 212100Z 30004KT 260V330 CAVOK 29/18 Q1009 NOSIG

(Powered by phpweather)
Airport Radio Frequencies
ATIS: 126.45
Ground: 118.27
Tower: 118.65, 118.9
Approach: 119.4, 121.1
Nearby VORs <50NM
Nearby NDBs
Runway 16 / 34
Dimensions:4586.6 x 46m 15048' x 151'ft
Surface:Asphalt
Edge Lights:High intensity
Runway 16 [A]Runway 34 [B]
Heading:158°TH 338°TH
Lat:
Lng:
25° 16' 48.8"N
51° 33' 23.49"E
25° 14' 30.8"N
51° 34' 24.5"E
ALS:ALSF-IALSF-II
TDZ:Yes, lighted
User Notes and Comments
25° 15' 39.8" N / 51° 33' 54" E
Distance To
Airport ID:
Nearby Airports
(C) AL UDEID AB 18.5 NM
OTBH WSW 237°
(C) AL KHOR 25.7 NM
OTBK N 351°
4 ARZANAH 70.6 NM
OMAR ESE 118°
(C) SHAIKH ISA 75.8 NM
OBBS NW 306°
4 DAS ISLAND 82.2 NM
OMAS E 95°
(C) BAHRAIN INTL 90.6 NM
OBBI ( WX ) NW 320°
(U) YAS ISLAND 92.8 NM
OM10 SE 136°
VFR Chart
Flight Planning at SkyVector.com